Time,TemperatureF,DewpointF,PressureIn,WindDirection,WindDirectionDegrees,WindSpeedMPH,WindSpeedGustMPH,Humidity,HourlyPrecipIn,Conditions,Clouds,dailyrainin,SoftwareType,DateUTC
2013-01-23 00:00:00,30.0,-99.9,-100.00,WSW,249,18.0,22.0,-999,-99.99,,,-99.99,,2013-01-23 07:00:00,
2013-01-23 00:53:00,30.0,-99.9,-100.00,WSW,249,18.0,22.0,-999,-99.99,,,-99.99,,2013-01-23 07:53:00,
2013-01-23 01:00:00,28.0,-99.9,-100.00,WSW,241,11.0,14.0,-999,-99.99,,,-99.99,,2013-01-23 08:00:00,
2013-01-23 01:53:00,28.0,-99.9,-100.00,WSW,241,11.0,14.0,-999,-99.99,,,-99.99,,2013-01-23 08:53:00,
2013-01-23 02:00:00,30.0,-99.9,-100.00,WSW,247,17.0,20.0,-999,-99.99,,,-99.99,,2013-01-23 09:00:00,
2013-01-23 02:53:00,30.0,-99.9,-100.00,WSW,247,17.0,20.0,-999,-99.99,,,-99.99,,2013-01-23 09:53:00,
2013-01-23 03:00:00,30.0,-99.9,-100.00,WSW,247,12.0,17.0,-999,-99.99,,,-99.99,,2013-01-23 10:00:00,
2013-01-23 03:53:00,30.0,-99.9,-100.00,WSW,247,12.0,17.0,-999,-99.99,,,-99.99,,2013-01-23 10:53:00,
2013-01-23 04:00:00,28.0,-99.9,-100.00,West,274,14.0,16.0,-999,-99.99,,,-99.99,,2013-01-23 11:00:00,
2013-01-23 04:53:00,28.0,-99.9,-100.00,West,274,14.0,16.0,-999,-99.99,,,-99.99,,2013-01-23 11:53:00,
2013-01-23 05:00:00,30.0,-99.9,-100.00,NW,319,8.0,12.0,-999,-99.99,,,-99.99,,2013-01-23 12:00:00,
2013-01-23 05:53:00,30.0,-99.9,-100.00,NW,319,8.0,12.0,-999,-99.99,,,-99.99,,2013-01-23 12:53:00,
2013-01-23 06:00:00,30.0,-99.9,-100.00,WNW,298,7.0,8.0,-999,-99.99,,,-99.99,,2013-01-23 13:00:00,
2013-01-23 06:53:00,30.0,-99.9,-100.00,WNW,298,7.0,8.0,-999,-99.99,,,-99.99,,2013-01-23 13:53:00,
2013-01-23 07:00:00,30.0,-99.9,-100.00,WSW,257,3.0,7.0,-999,-99.99,,,-99.99,,2013-01-23 14:00:00,
2013-01-23 07:53:00,30.0,-99.9,-100.00,WSW,257,3.0,7.0,-999,-99.99,,,-99.99,,2013-01-23 14:53:00,
2013-01-23 08:00:00,36.0,-99.9,-100.00,WSW,244,2.0,7.0,-999,-99.99,,,-99.99,,2013-01-23 15:00:00,
2013-01-23 08:53:00,36.0,-99.9,-100.00,WSW,244,2.0,7.0,-999,-99.99,,,-99.99,,2013-01-23 15:53:00,
2013-01-23 09:00:00,37.0,-99.9,-100.00,West,271,8.0,17.0,-999,-99.99,,,-99.99,,2013-01-23 16:00:00,
2013-01-23 09:53:00,37.0,-99.9,-100.00,West,271,8.0,17.0,-999,-99.99,,,-99.99,,2013-01-23 16:53:00,
2013-01-23 10:00:00,39.0,-99.9,-100.00,WSW,241,14.0,17.0,-999,-99.99,,,-99.99,,2013-01-23 17:00:00,
2013-01-23 10:53:00,39.0,-99.9,-100.00,WSW,241,14.0,17.0,-999,-99.99,,,-99.99,,2013-01-23 17:53:00,
2013-01-23 11:00:00,41.0,-99.9,-100.00,West,260,13.0,16.0,-999,-99.99,,,-99.99,,2013-01-23 18:00:00,
2013-01-23 11:53:00,41.0,-99.9,-100.00,West,260,13.0,16.0,-999,-99.99,,,-99.99,,2013-01-23 18:53:00,
2013-01-23 12:00:00,45.0,-99.9,-100.00,WSW,240,13.0,21.0,-999,-99.99,,,-99.99,,2013-01-23 19:00:00,
2013-01-23 12:53:00,45.0,-99.9,-100.00,WSW,240,13.0,21.0,-999,-99.99,,,-99.99,,2013-01-23 19:53:00,
2013-01-23 13:00:00,45.0,-99.9,-100.00,SW,231,25.0,31.0,-999,-99.99,,,-99.99,,2013-01-23 20:00:00,
2013-01-23 13:54:00,45.0,-99.9,-100.00,SW,231,25.0,31.0,-999,-99.99,,,-99.99,,2013-01-23 20:54:00,
2013-01-23 14:00:00,45.0,-99.9,-100.00,SW,229,20.0,28.0,-999,-99.99,,,-99.99,,2013-01-23 21:00:00,
2013-01-23 14:43:00,45.0,-99.9,-100.00,SW,229,20.0,28.0,-999,-99.99,,,-99.99,,2013-01-23 21:43:00,
2013-01-23 14:53:00,45.0,-99.9,-100.00,SW,229,20.0,28.0,-999,-99.99,,,-99.99,,2013-01-23 21:53:00,
2013-01-23 15:00:00,45.0,-99.9,-100.00,WSW,242,6.0,10.0,-999,-99.99,,,-99.99,,2013-01-23 22:00:00,
2013-01-23 15:53:00,45.0,-99.9,-100.00,WSW,242,6.0,10.0,-999,-99.99,,,-99.99,,2013-01-23 22:53:00,
2013-01-23 16:00:00,43.0,-99.9,-100.00,SSW,202,15.0,21.0,-999,-99.99,,,-99.99,,2013-01-23 23:00:00,
2013-01-23 16:53:00,43.0,-99.9,-100.00,SSW,202,15.0,21.0,-999,-99.99,,,-99.99,,2013-01-23 23:53:00,
2013-01-23 17:00:00,39.0,-99.9,-100.00,WSW,247,15.0,18.0,-999,-99.99,,,-99.99,,2013-01-24 00:00:00,
2013-01-23 17:53:00,39.0,-99.9,-100.00,WSW,247,15.0,18.0,-999,-99.99,,,-99.99,,2013-01-24 00:53:00,
2013-01-23 18:00:00,36.0,-99.9,-100.00,NNE,27,2.0,4.0,-999,-99.99,,,-99.99,,2013-01-24 01:00:00,
2013-01-23 18:53:00,36.0,-99.9,-100.00,NNE,27,2.0,4.0,-999,-99.99,,,-99.99,,2013-01-24 01:53:00,
2013-01-23 19:00:00,39.0,-99.9,-100.00,SSW,213,16.0,20.0,-999,-99.99,,,-99.99,,2013-01-24 02:00:00,
2013-01-23 20:00:00,41.0,-99.9,-100.00,SSW,197,12.0,21.0,-999,-99.99,,,-99.99,,2013-01-24 03:00:00,
2013-01-23 20:53:00,41.0,-99.9,-100.00,SSW,197,12.0,21.0,-999,-99.99,,,-99.99,,2013-01-24 03:53:00,
2013-01-23 21:00:00,37.0,-99.9,-100.00,WSW,254,10.0,12.0,-999,-99.99,,,-99.99,,2013-01-24 04:00:00,
2013-01-23 21:53:00,37.0,-99.9,-100.00,WSW,254,10.0,12.0,-999,-99.99,,,-99.99,,2013-01-24 04:53:00,
2013-01-23 22:00:00,39.0,-99.9,-100.00,SW,223,30.0,30.0,-999,-99.99,,,-99.99,,2013-01-24 05:00:00,
2013-01-23 22:53:00,39.0,-99.9,-100.00,SW,223,30.0,30.0,-999,-99.99,,,-99.99,,2013-01-24 05:53:00,
2013-01-23 23:00:00,37.0,-99.9,-100.00,SW,234,19.0,24.0,-999,-99.99,,,-99.99,,2013-01-24 06:00:00,
2013-01-23 23:53:00,37.0,-99.9,-100.00,SW,234,19.0,24.0,-999,-99.99,,,-99.99,,2013-01-24 06:53:00,